User: anonymous   Login
Location: Caltech
(34.1382°N, 118.1253°W)
Time: 09:59:57
(UTC-07:00)
Language:

Iridium 95 - Orbit

View from above orbital plane
View from above orbital plane
View from above satellite
View from above satellite

Ground track
Ground track

The orbit data is extracted from the following two-line orbital elements,

1 27375U 02005D   16179.21292018  .00000022  00000-0  87391-6 0  9998
2 27375  86.3982  75.9971 0002286  86.9311 273.2146 14.34214813760038
Epoch (UTC): 27 June 2016 05:06:36
Eccentricity: 0.0002286
inclination: 86.3982°
perigee height: 776 km
apogee height: 779 km
right ascension of ascending node: 75.9971°
argument of perigee: 86.9311°
revolutions per day: 14.34214813
mean anomaly at epoch: 273.2146°
orbit number at epoch: 76003

The dashed part of the orbit path shows where the satellite is in the earth's shadow,  

DLR